Weather History for KFYV - August, 2014

Change the Weather History Date:

Tuesday, August 26, 2014

  Actual Average Record
Temperature  
Mean Temperature 80 °F 76 °F  
Max Temperature 94 °F 88 °F 100 °F (1990)
Min Temperature 65 °F 64 °F 47 °F (1962)
Cooling Degree Days 15 11  
Month to date cooling degree days 308 325  
Year to date cooling degree days 970 1074  
Since 1 June cooling degree days 822 961  
Growing Degree Days 30 (Base 50)    
Moisture  
Dew Point 68 °F    
Average Humidity 70    
Maximum Humidity 100    
Minimum Humidity 39    
Precipitation  
Precipitation 0.00 in 0.11 in 0.88 in (2012)
Month to date precipitation 1.66 2.68  
Year to date precipitation 22.71 31.33  
Sea Level Pressure  
Sea Level Pressure 30.05 in    
Wind  
Wind Speed 3 mph (SE)    
Max Wind Speed 10 mph    
Max Gust Speed 15 mph    
Visibility 10 miles    
Events      
T = Trace of Precipitation, MM = Missing Value Source: NWS Daily Summary

Daily Weather History Graph

Daily Weather History Graph

Search for Another Location

Airport or City:

Trip Planner

Search our weather history database for the weather conditions in past years. The results will help you decide how hot, cold, wet, or windy it might be!

Date:

Astronomy

Aug. 26, 2014 Rise Set
Actual Time 6:43 AM CDT 7:52 PM CDT
Civil Twilight 6:17 AM CDT 8:18 PM CDT
Nautical Twilight 5:45 AM CDT 8:50 PM CDT
Astronomical Twilight 5:12 AM CDT 9:23 PM CDT
Moon 7:41 AM CDT (8/26) 8:18 PM CDT (8/26)
Length of Visible Light 14h 01m
Length of Day
13h 08m
New Moon, 1% of the Moon is Illuminated
Aug 26
New Moon
Sep 2
First Quarter
Sep 8
Full
Sep 15
Last Quarter
Sep 24
New

Hourly Weather History & Observations

Time (CDT) Temp. Heat Index Dew Point Humidity Pressure Visibility Wind Dir Wind Speed Gust Speed Precip Events Conditions
12:53 AM 70.0 °F - 66.0 °F 87% 30.01 in 10.0 mi Calm Calm - N/A   Clear
1:53 AM 69.1 °F - 66.0 °F 90% 30.01 in 10.0 mi Calm Calm - N/A   Clear
2:53 AM 68.0 °F - 66.0 °F 93% 30.02 in 10.0 mi Calm Calm - N/A   Clear
3:53 AM 66.2 °F - 66.2 °F 100% 30.06 in 10.0 mi Calm Calm - N/A   Clear
4:53 AM 66.0 °F - 66.0 °F 100% 30.02 in 9.0 mi Calm Calm - N/A   Clear
5:53 AM 66.9 °F - 66.0 °F 97% 30.04 in 10.0 mi Calm Calm - N/A   Clear
6:53 AM 66.2 °F - 64.4 °F 94% 30.12 in 8.0 mi Calm Calm - N/A   Clear
7:53 AM 69.1 °F - 68.0 °F 96% 30.09 in 7.0 mi Calm Calm - N/A   Clear
8:53 AM 75.0 °F - 71.1 °F 87% 30.09 in 10.0 mi Calm Calm - N/A   Clear
9:53 AM 82.9 °F 88.8 °F 73.0 °F 72% 30.10 in 10.0 mi Variable 3.5 mph - N/A   Scattered Clouds
10:53 AM 84.9 °F 90.1 °F 71.1 °F 63% 30.10 in 10.0 mi South 4.6 mph - N/A   Scattered Clouds
11:53 AM 88.0 °F 93.8 °F 71.1 °F 57% 30.10 in 10.0 mi Variable 3.5 mph - N/A   Clear
12:53 PM 90.0 °F 95.4 °F 70.0 °F 52% 30.09 in 10.0 mi ESE 6.9 mph - N/A   Partly Cloudy
1:53 PM 93.0 °F 96.4 °F 66.9 °F 42% 30.06 in 10.0 mi NE 6.9 mph - N/A   Partly Cloudy
2:53 PM 93.0 °F 95.0 °F 64.9 °F 39% 30.04 in 10.0 mi NE 4.6 mph - N/A   Clear
3:53 PM 93.2 °F 94.9 °F 64.4 °F 38% 30.06 in 10.0 mi ESE 8.1 mph - N/A   Partly Cloudy
4:53 PM 93.0 °F 94.6 °F 64.0 °F 38% 29.99 in 10.0 mi SE 6.9 mph - N/A   Clear
5:53 PM 91.9 °F 94.5 °F 66.0 °F 42% 29.98 in 10.0 mi SE 10.4 mph - N/A   Clear
6:53 PM 90.0 °F 92.8 °F 66.9 °F 46% 30.00 in 10.0 mi SE 9.2 mph - N/A   Clear
7:53 PM 84.0 °F 87.8 °F 69.1 °F 61% 30.02 in 10.0 mi ESE 4.6 mph - N/A   Clear
8:53 PM 79.0 °F - 69.1 °F 72% 30.04 in 10.0 mi Calm Calm - N/A   Clear
9:53 PM 75.0 °F - 69.1 °F 82% 30.04 in 10.0 mi Calm Calm - N/A   Clear
10:53 PM 75.0 °F - 70.0 °F 84% 30.05 in 10.0 mi South 3.5 mph - N/A   Clear
11:53 PM 73.0 °F - 69.1 °F 87% 30.05 in 10.0 mi South 3.5 mph - N/A   Clear